Home   Weather   Wainwright   Past weeks

Flag for USA Past Weather in Wainwright, Alaska, USA — Yesterday and Last 2 Weeks

Now
-15 °F

Ice fog.


Feels Like: -29 °F
Forecast: -5 / 3 °F
Wind: 6 mph from East

Location: Wainwright Distant Early Warning

Current Time: Dec 2, 2016 at 5:38:56 pm

Latest Report: Dec 2, 2016 at 4:53 pm


Visibility: 5 mi

Pressure: 30.06 "Hg

Humidity: 86%

Dew Point: -18 °F

Location of WainwrightLocation

Past Weather in Wainwright — Graph

°F

Wainwright Temperature Yesterday

Maximum temperature yesterday: 11 °F (at 4:55 pm)
Minimum temperature yesterday: -11 °F (at 8:57 pm)
Average temperature yesterday: -1 °F

High & Low Weather Summary for the Past Weeks

 TemperatureHumidityPressure
High14 °F (Nov 22, 11:53 am)96% (Nov 18, 9:53 pm)30.40 "Hg (Nov 18, 9:53 pm)
Low-16 °F (Dec 2, 3:53 pm)63% (Nov 28, 5:53 pm)29.55 "Hg (Nov 26, 11:53 pm)
Average2 °F86%29.90 "Hg
* Reported Nov 17 3:53 pm — Dec 2 3:53 pm, Wainwright, Weather by CustomWeather, © 2016

Note: Actual official high and low records may vary slightly from our data, if they occured in-between our weather recording intervals... More about our weather records

Advertising

Wainwright Weather History for the Previous 24 Hours

Scroll right to see more
 ConditionsComfort  
Time TempWeatherWind HumidityBarometerVisibility
3:53 pm
Fri, Dec 2
-16 °FIce fog.6 mph87%30.03 "Hg3 mi
2:53 pm-13 °FPartly sunny.5 mph82%30.01 "Hg10 mi
1:53 pm-15 °FOvercast.7 mph86%29.99 "Hg10 mi
12:53 pm-13 °FSunny.7 mph86%29.97 "Hg10 mi
11:53 am-12 °FSunny.6 mph86%29.95 "Hg10 mi
10:53 amN/ASunny.6 mphN/A29.93 "Hg7 mi
9:53 am-5 °FHaze.5 mphN/A29.91 "Hg2 mi
8:53 am-3 °FMostly cloudy.No wind82%29.89 "Hg10 mi
7:53 am-4 °FOvercast.3 mph86%29.86 "Hg10 mi
6:53 am-6 °FPartly sunny.No wind87%29.84 "Hg10 mi
5:53 am-9 °FPassing clouds.8 mph82%29.81 "Hg10 mi
4:53 am-1 °FLight snow. Mostly cloudy.8 mph79%29.81 "Hg4 mi
3:53 am-1 °FLight snow. Mostly cloudy.7 mph79%29.79 "Hg2 mi
2:53 am1 °FLight snow. Overcast.9 mph79%29.78 "Hg4 mi
1:53 am-1 °FOvercast.7 mph82%29.79 "Hg10 mi
12:53 am-6 °FOvercast.8 mphN/A29.79 "Hg8 mi
11:55 pm
Thu, Dec 1
-11 °FIce fog.5 mph91%29.79 "Hg2 mi
10:53 pmN/AFog.7 mphN/A29.78 "Hg1 mi
9:53 pm-6 °FIce fog.6 mph87%29.76 "Hg1 mi
8:57 pm-11 °FIce fog.5 mph91%29.75 "Hg1 mi
7:53 pm-9 °FIce fog.12 mph87%29.74 "Hg1 mi
7:00 pm-3 °FPassing clouds.12 mph95%29.72 "Hg10 mi
5:53 pm0 °FScattered clouds.13 mph91%29.70 "Hg10 mi
Weather by CustomWeather, © 2016

See weather overviewHow to use our weather pages